Wind_Speed
16 18 19 20 20 20 20 21 22 23 23 24 25 26 27 28 30 31 32 33 36 38 39 40 42 42 44 45 45 46 46 47 47 46 47 48 48 48 48 48 47 46 46
13 15 17 18 19 20 20 20 20 20 21 22 23 24 26 27 28 29 31 32 34 36 37 39 40 41 43 43 44 45 46 46 46 46 46 46 47 46 46 46 45 43 43
9 12 15 16 16 17 17 17 18 19 20 21 21 22 24 26 27 29 30 32 33 34 35 36 38 40 41 42 43 43 44 45 46 46 46 46 46 44 44 44 44 43 42
8 9 12 14 14 15 15 16 17 19 20 21 22 23 24 26 27 28 29 31 32 34 34 36 37 38 40 41 41 42 43 44 45 45 45 45 44 43 43 42 42 42 41
9 9 10 12 13 15 17 18 19 19 20 21 22 23 25 26 27 29 30 31 32 34 35 37 38 38 39 39 40 41 43 43 43 43 44 44 43 43 43 42 42 41 40
11 10 10 12 13 14 15 17 18 20 21 22 23 24 25 27 28 29 31 32 34 35 36 37 38 39 39 41 41 42 42 42 42 43 43 42 42 41 41 41 40 38 38
12 12 13 14 15 15 16 17 18 19 21 23 24 25 26 27 28 30 32 33 34 35 36 37 38 39 40 40 40 41 41 41 42 42 42 40 39 39 39 38 37 38 36
14 14 14 15 15 15 16 17 18 20 22 23 24 25 26 28 29 30 31 32 33 34 36 37 38 38 39 39 39 39 39 39 40 40 39 39 38 37 37 36 36 35 33
14 14 15 15 15 16 17 18 20 21 22 23 24 26 27 28 29 31 32 33 34 35 37 38 37 36 36 37 37 37 38 38 38 38 38 37 37 37 37 35 34 34 31
14 14 14 15 16 17 19 20 21 22 24 24 25 27 28 29 30 31 33 34 35 35 36 36 35 34 34 35 36 37 38 38 38 39 38 37 37 37 36 35 33 31 30
15 15 16 16 17 18 20 21 22 24 25 25 26 27 29 30 31 32 33 34 35 36 36 36 35 35 35 35 36 37 37 38 38 39 38 37 37 36 35 34 32 30 28
16 17 18 19 20 21 22 22 23 24 25 26 27 28 30 31 32 33 34 35 36 36 36 36 37 37 37 36 37 37 37 37 37 37 36 36 35 34 34 33 31 29 28
19 19 20 21 22 23 24 25 26 26 27 28 29 30 31 32 33 34 35 36 36 36 36 37 37 37 37 37 37 36 36 37 36 35 35 34 34 34 33 31 30 28 27
21 21 22 23 24 25 26 27 28 29 30 30 31 32 32 33 34 35 36 36 37 37 37 37 37 37 37 36 36 36 36 35 35 35 35 34 33 32 31 29 29 28 27
24 24 24 25 27 27 28 28 29 30 31 32 32 33 34 34 35 36 37 37 37 37 37 37 36 36 36 36 36 35 36 35 35 34 34 33 32 31 30 29 28 27 27
26 27 28 28 29 29 29 30 31 31 32 32 33 34 35 36 37 37 37 37 37 38 37 36 36 35 35 35 35 35 35 35 34 34 33 32 31 30 29 28 27 26 26
28 29 30 30 30 31 31 32 32 32 33 34 34 35 36 37 38 38 38 38 37 36 36 36 35 35 35 35 35 35 34 34 33 32 32 31 30 29 28 27 27 26 25
29 30 31 31 32 33 33 34 34 34 34 35 36 37 37 38 39 39 39 38 37 36 36 35 35 35 35 35 36 36 35 34 33 32 30 29 29 28 28 27 26 26 25
32 32 33 34 34 35 35 35 35 35 36 37 38 38 39 39 40 40 39 38 37 37 36 35 35 35 35 36 36 36 35 34 33 31 30 29 28 27 27 27 26 25 25
34 35 35 35 36 36 36 36 37 37 38 39 39 39 40 40 40 40 39 38 38 38 37 37 36 36 36 36 36 35 34 33 32 31 30 29 28 28 27 26 25 25 25
37 37 38 37 37 37 38 38 38 38 39 39 40 40 41 41 41 40 40 39 38 38 38 38 38 37 37 37 36 35 34 33 32 31 30 30 29 28 27 26 24 24 24
38 38 38 38 39 39 39 39 39 39 39 40 41 41 42 42 42 41 40 39 39 39 38 38 38 38 38 37 36 35 34 33 32 31 30 29 27 27 26 26 25 25 25
39 39 39 39 40 40 40 40 40 41 41 41 42 42 43 44 43 42 41 40 39 39 39 39 38 38 38 37 36 35 34 33 32 31 29 28 27 27 26 26 25 25 25
40 40 41 41 41 40 40 41 41 41 42 42 43 44 44 44 43 42 41 41 40 40 40 40 39 38 37 36 35 35 35 33 32 30 29 27 26 26 26 25 25 25 25
41 41 41 41 41 41 41 41 42 42 42 43 44 44 44 43 43 42 41 41 41 40 40 40 39 38 37 36 36 35 34 33 32 30 29 28 26 25 25 24 24 24 24
41 41 41 41 41 42 42 42 42 42 43 43 44 43 43 42 42 41 41 41 40 40 40 39 38 38 37 36 35 35 34 33 31 30 28 27 26 25 25 24 23 23 23
Wind_Direction
246 245 243 240 237 239 243 249 250 250 252 256 260 262 261 263 265 266 269 272 273 273 274 276 279 279 280 282 283 286 288 289 289 289 290 290 290 291 289 289 289 287 286
244 242 238 238 241 244 248 249 251 255 258 261 264 265 267 269 270 271 274 276 278 278 279 279 280 280 282 283 285 287 288 289 289 290 291 291 290 291 291 290 289 287 287
238 234 230 234 241 247 250 253 256 260 265 269 270 272 273 273 275 278 280 281 282 284 284 284 283 282 284 285 285 288 289 289 289 290 291 291 290 292 291 290 290 289 289
237 239 239 239 245 251 258 262 264 267 270 273 276 278 278 278 278 281 284 285 286 287 288 288 287 286 287 286 286 289 290 290 289 289 291 292 291 291 291 290 289 289 290
245 251 251 252 257 263 266 267 269 271 276 281 284 284 283 284 284 284 285 287 289 289 290 291 290 289 289 288 287 289 291 291 290 291 292 293 292 291 291 291 290 290 289
255 261 263 264 266 273 274 275 278 280 283 286 288 289 288 288 288 287 288 290 292 293 293 293 292 291 289 289 290 290 291 291 291 292 293 293 294 294 294 293 293 293 291
262 269 270 270 273 276 279 283 287 289 289 289 290 291 291 290 290 290 290 291 292 294 294 294 293 292 291 289 289 290 291 291 291 292 291 291 292 293 293 293 292 293 293
268 272 274 276 276 281 288 289 290 291 293 293 294 295 294 293 292 292 293 295 294 296 297 297 298 296 295 292 290 290 291 292 293 293 292 291 291 292 293 293 292 292 290
271 275 276 277 279 284 289 291 292 294 295 296 296 298 298 297 295 295 296 297 298 299 300 301 300 300 298 296 293 291 292 293 294 294 294 292 291 291 292 292 292 290 286
273 273 278 281 281 284 288 291 294 296 297 297 297 298 300 300 299 298 298 299 301 302 303 303 301 300 301 300 297 294 294 294 294 295 294 292 292 292 292 292 291 287 285
275 275 277 282 286 289 291 293 295 297 299 299 299 299 300 301 301 301 301 301 302 304 304 303 301 302 301 301 300 299 297 296 296 295 294 291 291 291 291 289 288 286 282
276 278 280 283 287 291 293 294 296 298 299 300 301 301 301 302 303 303 302 302 303 304 304 305 303 303 302 300 299 299 298 298 297 296 294 291 290 289 289 286 285 284 279
277 279 282 285 288 290 292 293 294 297 299 300 301 302 303 303 303 303 302 302 303 303 304 304 303 303 303 302 300 300 299 299 298 297 296 293 290 290 289 285 282 281 276
278 279 282 285 288 291 292 293 294 296 298 300 301 301 302 303 303 302 302 302 302 302 303 304 304 304 303 302 302 301 300 300 300 298 296 294 290 288 287 283 280 279 275
278 279 282 285 287 290 292 293 294 296 297 299 301 302 303 304 305 304 304 303 302 302 303 304 305 305 304 303 303 302 301 301 300 298 297 294 291 288 286 281 278 277 274
277 278 281 283 285 288 290 292 293 295 297 298 300 302 303 305 306 306 306 305 303 303 304 304 304 305 306 304 304 304 303 303 302 300 297 293 290 288 285 281 278 277 274
278 279 280 282 283 286 288 290 292 294 296 297 299 301 303 305 306 305 305 306 305 305 304 303 303 303 304 304 305 304 304 304 303 301 298 293 290 287 283 280 278 276 273
279 280 281 282 284 286 288 289 291 292 294 296 298 301 302 303 304 304 305 305 305 305 305 304 304 305 305 305 305 305 303 303 301 299 297 293 290 286 281 278 277 275 270
280 281 282 284 285 286 288 289 290 292 293 295 297 298 300 302 304 304 304 304 304 304 304 304 304 304 304 305 305 305 303 302 301 299 296 292 289 285 281 278 277 273 268
280 281 283 284 286 286 287 288 289 291 293 295 296 297 298 301 302 303 302 302 302 302 302 302 302 303 303 303 303 303 303 301 300 299 296 292 288 285 282 278 276 273 268
280 281 283 284 285 286 287 288 289 291 293 295 297 298 298 299 300 301 300 300 300 300 300 300 301 301 301 301 301 300 299 299 297 297 295 292 288 287 283 279 274 271 266
279 280 281 282 284 285 287 288 289 291 293 295 297 298 299 299 299 299 298 298 298 299 300 300 300 300 299 299 298 298 297 297 296 295 294 291 287 286 284 280 276 272 265
278 280 281 282 283 284 286 287 289 291 293 295 296 297 298 299 298 298 297 297 298 298 298 299 299 299 298 297 296 296 296 295 294 292 291 288 285 283 282 279 275 271 265
277 279 280 281 283 284 285 287 289 291 293 295 297 298 298 298 297 297 296 296 297 297 297 297 298 297 296 295 294 293 293 293 291 289 287 286 284 282 280 277 273 269 264
276 278 279 281 282 284 285 287 289 291 293 295 298 299 298 297 297 296 296 295 295 296 296 297 297 296 294 293 293 292 291 290 288 286 284 283 281 279 277 274 272 268 264
276 277 278 280 282 284 285 287 289 291 293 295 297 298 299 298 297 296 296 295 295 295 296 297 297 296 294 292 292 291 290 288 286 283 282 280 278 276 274 271 269 267 263
Height
5654 5656 5658 5661 5664 5666 5668 5670 5672 5674 5675 5676 5677 5678 5679 5680 5680 5681 5681 5681 5682 5682 5681 5680 5679 5678 5676 5675 5673 5670 5667 5664 5661 5660 5656 5653 5648 5645 5641 5637 5633 5629 5626
5651 5653 5655 5658 5660 5662 5664 5665 5667 5668 5669 5670 5671 5671 5671 5671 5672 5672 5672 5672 5672 5671 5669 5668 5667 5666 5664 5662 5660 5657 5654 5650 5647 5645 5643 5639 5635 5632 5628 5623 5620 5616 5613
5649 5650 5652 5655 5656 5658 5659 5660 5662 5663 5664 5664 5664 5664 5663 5663 5664 5664 5664 5663 5661 5660 5658 5657 5656 5654 5652 5650 5647 5644 5641 5637 5634 5631 5629 5625 5622 5619 5615 5610 5607 5603 5600
5647 5648 5649 5651 5653 5654 5654 5655 5656 5657 5658 5658 5658 5657 5656 5656 5656 5655 5655 5653 5652 5650 5648 5646 5644 5642 5640 5637 5635 5632 5629 5625 5622 5619 5615 5612 5609 5605 5601 5598 5594 5592 5588
5645 5646 5647 5648 5649 5649 5650 5651 5651 5652 5652 5651 5651 5650 5649 5648 5647 5647 5646 5644 5643 5640 5638 5636 5633 5631 5628 5625 5623 5620 5617 5613 5610 5607 5603 5600 5597 5593 5590 5586 5583 5580 5577
5643 5644 5644 5645 5645 5646 5646 5646 5646 5646 5646 5645 5644 5643 5641 5640 5639 5638 5637 5635 5633 5631 5628 5625 5622 5620 5617 5614 5611 5608 5605 5601 5598 5595 5592 5589 5586 5582 5578 5575 5571 5569 5567
5640 5641 5641 5642 5642 5642 5642 5642 5641 5640 5639 5638 5637 5636 5634 5632 5631 5630 5628 5626 5624 5621 5618 5615 5612 5609 5605 5602 5599 5596 5593 5589 5587 5584 5580 5577 5575 5571 5568 5565 5561 5558 5555
5637 5637 5637 5638 5638 5638 5637 5637 5636 5635 5633 5632 5631 5629 5627 5625 5624 5622 5620 5617 5614 5611 5608 5605 5601 5597 5594 5591 5588 5585 5582 5579 5576 5573 5570 5567 5564 5560 5557 5554 5551 5548 5545
5633 5633 5634 5634 5633 5633 5633 5632 5631 5629 5628 5626 5625 5623 5620 5618 5616 5614 5611 5608 5605 5602 5599 5595 5591 5588 5584 5580 5578 5575 5572 5569 5566 5562 5558 5556 5553 5550 5546 5543 5541 5538 5537
5629 5629 5629 5629 5629 5628 5627 5626 5625 5624 5622 5620 5618 5616 5614 5611 5608 5605 5603 5600 5597 5594 5590 5586 5582 5578 5574 5570 5567 5564 5562 5559 5556 5552 5548 5545 5542 5539 5536 5533 5531 5529 5528
5625 5625 5624 5624 5623 5623 5622 5621 5620 5618 5616 5614 5612 5609 5607 5604 5600 5597 5593 5591 5588 5584 5581 5577 5573 5569 5565 5561 5558 5554 5551 5548 5544 5541 5538 5534 5532 5529 5527 5524 5522 5521 5520
5620 5619 5619 5619 5618 5617 5616 5615 5613 5612 5610 5607 5604 5602 5599 5596 5592 5588 5585 5581 5578 5575 5571 5568 5564 5560 5555 5552 5548 5544 5540 5537 5533 5530 5527 5524 5522 5520 5517 5516 5514 5513 5512
5614 5614 5613 5613 5612 5611 5610 5608 5607 5605 5603 5600 5597 5595 5591 5587 5584 5580 5576 5573 5569 5565 5561 5558 5554 5550 5545 5541 5537 5534 5530 5526 5523 5520 5516 5514 5512 5510 5508 5507 5505 5505 5504
5608 5607 5607 5606 5605 5604 5602 5600 5599 5597 5595 5592 5590 5586 5583 5579 5575 5571 5567 5563 5560 5556 5552 5548 5544 5540 5535 5531 5527 5523 5519 5516 5512 5509 5506 5504 5502 5500 5499 5498 5497 5496 5496
5601 5600 5600 5599 5597 5596 5594 5592 5591 5589 5586 5584 5581 5578 5574 5571 5566 5562 5558 5554 5550 5546 5542 5538 5534 5530 5526 5521 5517 5513 5509 5506 5502 5499 5496 5494 5492 5491 5490 5489 5488 5488 5488
5593 5592 5591 5590 5589 5588 5586 5584 5582 5580 5577 5575 5572 5569 5565 5562 5557 5553 5549 5544 5540 5536 5532 5528 5524 5520 5516 5512 5508 5504 5500 5496 5492 5489 5486 5484 5483 5482 5481 5480 5480 5480 5481
5584 5584 5583 5582 5580 5579 5577 5575 5573 5571 5568 5565 5562 5559 5555 5552 5548 5543 5539 5534 5530 5526 5522 5518 5514 5511 5507 5503 5499 5495 5491 5487 5483 5480 5477 5475 5474 5473 5473 5472 5472 5472 5472
5575 5575 5573 5572 5571 5569 5568 5566 5564 5561 5559 5556 5552 5549 5545 5541 5537 5533 5529 5524 5520 5516 5512 5509 5505 5501 5497 5494 5490 5486 5482 5478 5475 5472 5469 5467 5466 5465 5465 5464 5464 5464 5464
5566 5565 5563 5562 5561 5559 5557 5555 5553 5551 5549 5546 5542 5539 5535 5531 5527 5522 5518 5514 5510 5506 5503 5499 5495 5491 5488 5484 5480 5477 5473 5469 5466 5463 5461 5459 5458 5457 5456 5456 5456 5456 5456
5556 5554 5553 5552 5550 5548 5547 5545 5543 5540 5538 5535 5532 5528 5524 5520 5516 5511 5507 5503 5500 5496 5492 5489 5485 5481 5478 5474 5471 5467 5464 5461 5458 5455 5453 5451 5450 5449 5448 5448 5447 5447 5448
5544 5543 5542 5541 5539 5537 5536 5534 5531 5529 5526 5523 5520 5516 5512 5509 5504 5500 5496 5492 5489 5485 5482 5478 5475 5471 5467 5464 5460 5457 5454 5452 5449 5446 5444 5442 5441 5440 5439 5439 5439 5439 5439
5532 5531 5530 5529 5528 5526 5524 5522 5520 5517 5514 5511 5508 5504 5500 5496 5492 5488 5485 5481 5477 5474 5470 5467 5464 5460 5457 5453 5450 5447 5444 5442 5439 5437 5435 5433 5432 5431 5430 5430 5430 5430 5431
5520 5519 5518 5517 5515 5514 5512 5510 5508 5505 5502 5499 5496 5492 5488 5484 5480 5476 5472 5469 5465 5462 5458 5455 5452 5448 5445 5442 5439 5436 5434 5432 5430 5428 5426 5424 5423 5422 5421 5421 5421 5421 5422
5507 5507 5506 5504 5503 5501 5499 5497 5495 5492 5490 5486 5483 5479 5475 5471 5467 5463 5460 5456 5453 5449 5446 5443 5440 5436 5433 5430 5428 5425 5423 5422 5420 5418 5417 5415 5414 5413 5413 5412 5412 5413 5414
5495 5494 5493 5491 5490 5489 5487 5485 5482 5480 5477 5473 5470 5466 5462 5458 5454 5450 5447 5444 5440 5437 5434 5430 5427 5424 5422 5419 5416 5414 5412 5411 5410 5408 5407 5406 5405 5405 5404 5404 5404 5405 5406
5482 5481 5480 5479 5477 5476 5474 5472 5469 5467 5464 5460 5457 5453 5449 5445 5441 5438 5434 5431 5428 5425 5422 5418 5415 5412 5410 5407 5405 5403 5401 5400 5399 5398 5397 5397 5396 5396 5396 5396 5396 5397 5398